THORAD AGENA D DEB, 4980

Orbit data source: Space-Track

THORAD AGENA D DEB, 4980 is space debris in SSO originally from a launch on Wed, 08 Apr 1970 UTC launched from the Air Force Western Test Range (AFWTR). Debris objects in space refer to the collection of defunct objects orbiting the Earth. Examples of debris include non-operational satellites, rocket bodies, and fragments generated from explosions, collisions, or faulty payload assembly.

Loading next visibility...
Identifier
4980, 1970-025HA
Orbit
SSO
Country
Flag of USUS
Related business
Manufacturer
Unknown
Mission
Spacecraft
Bus & Motor
Unknown
Mass
Unknown
Launch date (UTC)
1970-04-08 (56 years ago)
Launch vehicle
Unknown
Launch site
Air Force Western Test Range (AFWTR)
Object type
Payload
Rocket body
Debris
Shape & HBR
Unknown shape, 0.1 m
Radar Cross Section
Small (<0.1 m²)

Expand to show TLE details & history
Last TLE update: 11 hours ago

TLE from 11 hours ago
0 THORAD AGENA D DEB
1 04980U 70025HA  26125.00876124  .00000296  00000-0  43741-3 0  9998
2 04980  99.2856 318.6554 0007374 254.7557 259.5223 13.62120502774345
Epoch: 2026-05-05T00:12Z
TLE epoch observation values (Epoch: 2026-05-05T00:12:36.971Z)
Latitude
25.47359°
Longitude
-82.94411°
Altitude
1,031.995 km
Speed
7.337 km/s
True Right ascension
09h 32m 23s
True Declination
25° 20' 43"
Sunlit
Object was in daylight at epoch
Visualization orbit readout
Latitude
Unknown
Longitude
Unknown
Altitude
Unknown
Speed
Unknown
Apparent Right ascension
Unknown
Apparent Declination
Unknown
Sunlit
N/A
Visualization observer readout
Local Sidereal Time
18:48:54
Azimuth
Unknown
Elevation
Unknown
Doppler factor
Unknown
Orbital elements
Apogee altitude
1,030.719 km
Perigee altitude
1,019.801 km
Semi-major axis
7,403.397 km
Eccentricity
0.00074
Inclination
99.2856°
RAAN
318.6554°
Arg. of periapsis
254.7557°
True anomaly
259.43922°
Mean anomaly
259.5223°
Eccentric anomaly
259.48076°
Mean motion
3.40719 °/min
Orbital period
105.66 mins
BSTAR
0.00043741
Loading maneuver chart data...
Computing Atmospheric mass density...
Loading historical data...
Loading historical data...
Loading historical data...
Loading historical data...
Loading historical data...
Loading historical data...
Loading historical data...

Documentation

Showing up to 5 results
|